Location: Dilsberg
(49.3983°N, 8.8354°E)
Time: 20:10:25
(UTC+00:00)

Cosmos 1707 - Pass Details

Date: 19 May 2025
Orbit: 422 x 430 km, 82.5° (Epoch: 20 June)

Event Time Altitude Azimuth Distance (km) Brightness Sun altitude
Exits shadow 22:52:35 85° 71° (ENE) 442 2.2 -20.3°
Drops below altitude 10° 22:55:56 10° 11° (N) 1,553 6.2 -20.4°
Sets 22:58:00 0° 11° (N) 2,429 7.5 -20.4°
